Location: Bord�res
(43.2000°N, 0.2167°W)
Time: 14:33:15
(UTC+00:00)

DMSP B5D1-3 - Pass Details

Date: 03 March 2021
Orbit: 767 x 780 km, 98.5° (Epoch: 13 April)

Event Time Altitude Azimuth Distance (km) Brightness Sun altitude
Rises 18:48:07 0° 15° (NNE) 3,271 7.6 -10.9°
Reaches altitude 10° 18:50:27 10° 16° (NNE) 2,341 6.9 -11.3°
Maximum altitude 18:55:38 77° 103° (ESE) 804 4.5 -12.3°
Drops below altitude 10° 19:00:46 10° 190° (S) 2,326 7.1 -13.2°
Sets 19:03:04 0° 191° (SSW) 3,249 7.9 -13.6°
